TimeCST,TemperatureF,Dew PointF,Humidity,Sea Level PressureIn,VisibilityMPH,Wind Direction,Wind SpeedMPH,Gust SpeedMPH,PrecipitationIn,Events,Conditions,WindDirDegrees,DateUTC
12:00 AM,18,13,73,30.51,,NW,4.6,,,,,310,2012-10-06 06:00:00
12:00 AM,17.8,13.1,82,30.51,-9999.0,NW,4.6,-,N/A,,Unknown,310,2012-10-06 06:00:00
1:00 AM,18.1,13.8,83,30.50,-9999.0,NW,3.5,-,N/A,,Unknown,310,2012-10-06 07:00:00
2:00 AM,16.9,13.5,86,30.49,-9999.0,West,3.5,-,N/A,,Unknown,280,2012-10-06 08:00:00
3:00 AM,16.0,12.0,84,30.48,-9999.0,WSW,1.2,-,N/A,,Unknown,250,2012-10-06 09:00:00
4:00 AM,12.4,9.7,89,30.48,-9999.0,West,1.2,-,N/A,,Unknown,260,2012-10-06 10:00:00
5:00 AM,9.1,5.9,87,30.48,-9999.0,South,2.3,-,N/A,,Unknown,190,2012-10-06 11:00:00
6:00 AM,9,6,82,30.47,,SSE,4.6,,,,,160,2012-10-06 12:00:00
6:00 AM,9.1,6.1,87,30.47,-9999.0,SSE,4.6,-,N/A,,Unknown,160,2012-10-06 12:00:00
7:00 AM,9.9,7.0,88,30.46,-9999.0,South,4.6,-,N/A,,Unknown,170,2012-10-06 13:00:00
8:00 AM,16.5,12.9,86,30.44,-9999.0,SSE,3.5,-,N/A,,Unknown,160,2012-10-06 14:00:00
9:00 AM,24.8,18.0,75,30.43,-9999.0,SSW,2.3,-,N/A,,Unknown,200,2012-10-06 15:00:00
10:00 AM,34.0,21.6,60,30.40,-9999.0,SW,4.6,-,N/A,,Unknown,220,2012-10-06 16:00:00
11:00 AM,43.3,23.7,46,30.36,-9999.0,West,10.4,-,N/A,,Unknown,260,2012-10-06 17:00:00
12:00 PM,46,22,25,30.33,,West,11.5,,,,,260,2012-10-06 18:00:00
12:00 PM,46.2,21.7,38,30.33,-9999.0,West,11.5,18.4,N/A,,Unknown,260,2012-10-06 18:00:00
1:00 PM,47.8,19.4,32,30.30,-9999.0,West,10.4,-,N/A,,Unknown,260,2012-10-06 19:00:00
2:00 PM,49.1,19.6,31,30.25,-9999.0,West,11.5,-,N/A,,Unknown,270,2012-10-06 20:00:00
3:00 PM,50.4,20.5,31,30.22,-9999.0,West,11.5,19.6,N/A,,Unknown,270,2012-10-06 21:00:00
4:00 PM,51.1,20.1,30,30.20,-9999.0,West,13.8,21.9,N/A,,Unknown,260,2012-10-06 22:00:00
5:00 PM,50.5,19.4,29,30.17,-9999.0,West,12.7,21.9,N/A,,Unknown,260,2012-10-06 23:00:00
6:00 PM,49,19,18,30.16,,West,11.5,,,,,270,2012-10-07 00:00:00
6:00 PM,48.6,19.2,31,30.16,-9999.0,West,11.5,18.4,N/A,,Unknown,270,2012-10-07 00:00:00
7:00 PM,42.8,19.4,39,30.14,-9999.0,WSW,5.8,-,N/A,,Unknown,240,2012-10-07 01:00:00
8:00 PM,42.1,19.4,40,30.11,-9999.0,SW,5.8,-,N/A,,Unknown,230,2012-10-07 02:00:00
9:00 PM,39.0,20.1,47,30.09,-9999.0,WSW,5.8,-,N/A,,Unknown,250,2012-10-07 03:00:00
10:00 PM,39.2,21.0,48,30.06,-9999.0,WSW,5.8,-,N/A,,Unknown,250,2012-10-07 04:00:00
11:00 PM,40.3,21.6,47,30.03,-9999.0,WSW,5.8,-,N/A,,Unknown,250,2012-10-07 05:00:00